TimeEEST,TemperatureF,Dew PointF,Humidity,Sea Level PressureIn,VisibilityMPH,Wind Direction,Wind SpeedMPH,Gust SpeedMPH,PrecipitationIn,Events,Conditions,WindDirDegrees,DateUTC
12:50 AM,51.8,42.8,71,30.18,6.2,ENE,4.6,-,N/A,,Scattered Clouds,60,2013-05-23 21:50:00
1:50 AM,51.8,44.6,76,30.18,6.2,ENE,3.5,-,N/A,,Scattered Clouds,60,2013-05-23 22:50:00
2:50 AM,50.0,44.6,82,30.18,6.2,Variable,1.2,-,N/A,,Scattered Clouds,0,2013-05-23 23:50:00
3:00 AM,49,44,78,,6,ESE,1.2,,,,Partly Cloudy,110,2013-05-24 00:00:00
3:50 AM,48.2,42.8,82,30.18,6.2,SE,3.5,-,N/A,,Scattered Clouds,140,2013-05-24 00:50:00
4:50 AM,48.2,44.6,87,30.18,6.2,Variable,2.3,-,N/A,,Partly Cloudy,0,2013-05-24 01:50:00
5:50 AM,53.6,46.4,77,30.21,6.2,ENE,4.6,-,N/A,,Partly Cloudy,60,2013-05-24 02:50:00
6:50 AM,60.8,48.2,63,30.21,6.2,Variable,2.3,-,N/A,,Partly Cloudy,0,2013-05-24 03:50:00
7:50 AM,62.6,48.2,59,30.21,6.2,West,4.6,-,N/A,,Scattered Clouds,280,2013-05-24 04:50:00
8:50 AM,62.6,50.0,63,30.21,6.2,WNW,5.8,-,N/A,,Partly Cloudy,290,2013-05-24 05:50:00
9:00 AM,63,50,52,,6,WNW,5.8,,,,Scattered Clouds,290,2013-05-24 06:00:00
9:50 AM,64.4,48.2,56,30.21,6.2,West,6.9,-,N/A,,Partly Cloudy,270,2013-05-24 06:50:00
10:50 AM,64.4,51.8,64,30.21,6.2,WNW,6.9,-,N/A,,Scattered Clouds,290,2013-05-24 07:50:00
11:50 AM,64.4,53.6,68,30.21,6.2,West,4.6,-,N/A,,Scattered Clouds,270,2013-05-24 08:50:00
12:50 PM,66.2,55.4,68,30.21,6.2,WSW,5.8,-,N/A,,Scattered Clouds,250,2013-05-24 09:50:00
1:50 PM,66.2,51.8,60,30.18,6.2,West,4.6,-,N/A,,Scattered Clouds,260,2013-05-24 10:50:00
2:50 PM,68.0,53.6,60,30.18,6.2,WNW,4.6,-,N/A,,Scattered Clouds,290,2013-05-24 11:50:00
3:00 PM,68,50,42,,6,WNW,4.6,,,,Partly Cloudy,290,2013-05-24 12:00:00
3:50 PM,68.0,55.4,64,30.15,6.2,WSW,5.8,-,N/A,,Scattered Clouds,250,2013-05-24 12:50:00
4:50 PM,68.0,46.4,46,30.15,6.2,West,3.5,-,N/A,,Scattered Clouds,260,2013-05-24 13:50:00
5:50 PM,69.8,42.8,38,30.15,6.2,Variable,1.2,-,N/A,,Scattered Clouds,0,2013-05-24 14:50:00
6:50 PM,66.2,41.0,40,30.15,6.2,West,3.5,-,N/A,,Scattered Clouds,260,2013-05-24 15:50:00
7:50 PM,62.6,46.4,55,30.15,6.2,Calm,Calm,-,N/A,,Scattered Clouds,0,2013-05-24 16:50:00
8:50 PM,62.6,46.4,55,30.15,6.2,Calm,Calm,-,N/A,,Scattered Clouds,0,2013-05-24 17:50:00
9:00 PM,60,48,56,,7,Calm,Calm,,,,Partly Cloudy,,2013-05-24 18:00:00
9:50 PM,62.6,46.4,55,30.12,6.2,Calm,Calm,-,N/A,,Scattered Clouds,0,2013-05-24 18:50:00
10:50 PM,59.0,42.8,55,30.12,6.2,Variable,2.3,-,N/A,,Scattered Clouds,0,2013-05-24 19:50:00
11:50 PM,55.4,44.6,67,30.15,6.2,SSE,4.6,-,N/A,,Scattered Clouds,160,2013-05-24 20:50:00